Location: Baumgartsau
(48.4586°N, 14.0864°E)
Time: 01:22:15
(UTC+00:00)

SL-16 R/B - Pass Details

Date: 10 August 2020
Orbit: 843 x 845 km, 71.0° (Epoch: 26 September)

Event Time Altitude Azimuth Distance (km) Brightness Sun altitude
Rises 19:21:19 0° 336° (NNW) 3,416 6.5 -8.8°
Reaches altitude 10° 19:24:15 10° 350° (N) 2,478 5.4 -9.2°
Maximum altitude 19:28:51 25° 44° (NE) 1,666 3.7 -9.8°
Drops below altitude 10° 19:33:26 10° 98° (E) 2,469 4.1 -10.4°
Enters shadow 19:33:36 - 99° (E) 2,516 4.1 -10.4°
